Terre Haute, IN

7:41 PM EST on December 15, 2019 (GMT -0500)
Terre Haute International-Hulman

Weather History for KHUF - October, 2019

Change the Weather History Date:

Monday, October 28, 2019

  Actual Average Record
Temperature  
Mean Temperature 48 °F 50 °F  
Max Temperature 56 °F 61 °F 78 °F (1971)
Min Temperature 39 °F 40 °F 19 °F (1976)
Degree Days  
Heating Degree Days 17 15  
Month to date heating degree days 258 303  
Since 1 July heating degree days 260 381  
Cooling Degree Days 0 0  
Month to date cooling degree days 34 12  
Year to date cooling degree days 1298 990  
Moisture  
Dew Point 47 °F    
Average Humidity 93    
Maximum Humidity 100    
Minimum Humidity 86    
Precipitation  
Precipitation 0.00 in 0.11 in 1.06 in (2015)
Month to date precipitation 4.50 3.27  
Year to date precipitation 42.43 37.97  
Sea Level Pressure  
Sea Level Pressure 30.07 in    
Wind  
Wind Speed 4 mph (South)    
Max Wind Speed 9 mph    
Max Gust Speed 12 mph    
Visibility 6 miles    
Events Fog    
T = Trace of Precipitation, MM = Missing Value Source: NWS Daily Summary

Daily Weather History Graph

Daily Weather History Graph

Search for Another Location

Airport or City:

Astronomy

Oct. 28, 2019 Rise Set
Actual Time 8:12 AM EDT 6:52 PM EDT
Civil Twilight 7:45 AM EDT 7:20 PM EDT
Nautical Twilight 7:13 AM EDT 7:51 PM EDT
Astronomical Twilight 6:42 AM EDT 8:23 PM EDT
Moon 8:33 AM EDT (10/28) 7:37 PM EDT (10/28)
Length of Visible Light 11h 35m
Length of Day
10h 40m
New Moon, 0% of the Moon is Illuminated
Oct 28
New Moon
Nov 4
First Quarter
Nov 12
Full
Nov 19
Last Quarter
Nov 26
New

Hourly Weather History & Observations

Time (EDT) Temp. Windchill Dew Point Humidity Pressure Visibility Wind Dir Wind Speed Gust Speed Precip Events Conditions
12:53 AM 44.1 °F - 43.0 °F 96% 30.04 in 10.0 mi Calm Calm - N/A   Clear
1:53 AM 44.1 °F 41.5 °F 42.1 °F 93% 30.05 in 10.0 mi SE 4.6 mph - N/A   Clear
2:53 AM 43.0 °F 41.3 °F 42.1 °F 97% 30.06 in 10.0 mi SE 3.5 mph - N/A   Clear
3:53 AM 41.0 °F - 39.9 °F 96% 30.06 in 10.0 mi Calm Calm - N/A   Clear
4:53 AM 42.1 °F - 39.9 °F 92% 30.06 in 6.0 mi Calm Calm - N/A   Clear
5:53 AM 39.9 °F - 39.0 °F 97% 30.06 in 7.0 mi Calm Calm - N/A   Clear
6:53 AM 39.9 °F - 39.0 °F 97% 30.08 in 4.0 mi Calm Calm - N/A   Clear
7:00 AM 39.9 °F - 39.0 °F 97% 30.07 in 1.8 mi Calm Calm - N/A   Clear
7:09 AM 39.9 °F 37.8 °F 39.0 °F 97% 30.07 in 0.8 mi ESE 3.5 mph - N/A   Clear
7:17 AM 39.9 °F - 37.9 °F 93% 30.07 in 2.5 mi Calm Calm - N/A   Clear
7:24 AM 39.9 °F - 39.0 °F 97% 30.07 in 0.8 mi Calm Calm - N/A   Clear
7:50 AM 39.2 °F - 39.2 °F 100% 30.08 in 0.8 mi Calm Calm - N/A   Clear
7:53 AM 39.9 °F - 39.0 °F 97% 30.09 in 0.8 mi Calm Calm - N/A   Clear
8:00 AM 41.0 °F - 39.9 °F 96% 30.08 in 2.5 mi Calm Calm - N/A   Clear
8:20 AM 41.0 °F 39.0 °F 39.9 °F 96% 30.08 in 4.0 mi South 3.5 mph - N/A   Clear
8:31 AM 41.0 °F - 39.9 °F 96% 30.08 in 4.0 mi Calm Calm - N/A   Scattered Clouds
8:39 AM 42.1 °F - 41.0 °F 96% 30.09 in 4.0 mi Calm Calm - N/A   Mostly Cloudy
8:53 AM 45.0 °F - 43.0 °F 93% 30.09 in 5.0 mi Calm Calm - N/A   Overcast
9:06 AM 46.0 °F 44.8 °F 44.1 °F 93% 30.10 in 4.0 mi SW 3.5 mph - N/A   Overcast
9:14 AM 46.9 °F - 45.0 °F 93% 30.10 in 1.5 mi WSW 4.6 mph - N/A   Overcast
9:20 AM 46.9 °F - 46.0 °F 97% 30.10 in 0.2 mi SW 5.8 mph - N/A Fog Fog
9:53 AM 46.9 °F - 46.9 °F 100% 30.12 in 0.2 mi SW 5.8 mph - N/A Fog Fog
11:01 AM 48.9 °F - 48.0 °F 97% 30.11 in 2.0 mi South 3.5 mph - N/A   Overcast
11:11 AM 50.0 °F - 48.0 °F 93% 30.10 in 4.0 mi SE 4.6 mph - N/A   Overcast
11:53 AM 51.1 °F - 50.0 °F 96% 30.11 in 6.0 mi SE 5.8 mph - N/A   Overcast
12:16 PM 52.0 °F - 50.0 °F 93% 30.10 in 8.0 mi SSE 6.9 mph - N/A   Overcast
12:32 PM 52.0 °F - 51.1 °F 97% 30.10 in 9.0 mi SSE 9.2 mph - N/A   Overcast
12:53 PM 53.1 °F - 51.1 °F 93% 30.10 in 8.0 mi SE 6.9 mph - N/A   Overcast
1:53 PM 54.0 °F - 52.0 °F 93% 30.07 in 7.0 mi SE 8.1 mph - N/A   Overcast
2:24 PM 55.0 °F - 52.0 °F 89% 30.06 in 7.0 mi SSE 4.6 mph - N/A   Overcast
2:53 PM 55.9 °F - 52.0 °F 87% 30.06 in 10.0 mi South 6.9 mph - N/A   Overcast
3:53 PM 55.0 °F - 52.0 °F 89% 30.06 in 7.0 mi South 8.1 mph - N/A   Overcast
4:53 PM 55.0 °F - 53.1 °F 93% 30.06 in 5.0 mi WSW 5.8 mph - N/A   Overcast
5:07 PM 55.0 °F - 53.1 °F 93% 30.05 in 7.0 mi SSW 5.8 mph - N/A   Overcast
5:14 PM 55.0 °F - 53.1 °F 93% 30.05 in 9.0 mi SSW 4.6 mph - N/A   Overcast
5:51 PM 55.4 °F - 53.6 °F 94% 30.05 in 10.0 mi SSW 4.6 mph - N/A   Overcast
5:53 PM 55.0 °F - 53.1 °F 93% 30.06 in 10.0 mi SSW 5.8 mph - N/A   Overcast
6:28 PM 55.0 °F - 52.0 °F 89% 30.06 in 10.0 mi SW 4.6 mph - N/A   Overcast
6:53 PM 55.0 °F - 52.0 °F 89% 30.06 in 7.0 mi SSW 3.5 mph - N/A   Overcast
7:17 PM 54.0 °F - 53.1 °F 97% 30.06 in 9.0 mi South 3.5 mph - N/A   Overcast
7:53 PM 54.0 °F - 53.1 °F 97% 30.06 in 9.0 mi South 4.6 mph - N/A   Overcast
8:53 PM 54.0 °F - 52.0 °F 93% 30.06 in 10.0 mi Calm Calm - N/A   Overcast
9:53 PM 54.0 °F - 52.0 °F 93% 30.05 in 10.0 mi South 4.6 mph - N/A   Overcast
10:53 PM 54.0 °F - 52.0 °F 93% 30.04 in 10.0 mi SSE 4.6 mph - N/A   Overcast
11:53 PM 54.0 °F - 52.0 °F 93% 30.05 in 9.0 mi South 3.5 mph - N/A   Overcast